Regional Weather Roundup
Issued by NWS State College, PA

Home | Current Version | Previous Version | Graphics & Text | Print | Product List | Glossary Off
Versions: 1 2 3 4 5 6 7 8 9 10 11 12 13 14 15 16 17 18 19 20 21 22 23 24 25 26 27 28 29 30 31 32 33 34 35 36 37 38 39 40 41 42 43 44 45 46 47 48 49 50

000
ASUS41 KCTP 271410
RWRCTP

REGIONAL WEATHER ROUNDUP
NATIONAL WEATHER SERVICE STATE COLLEGE PA
900 AM EST TUE JAN 27 2015

Note: "fair" indicates few or no clouds below 12,000 feet with no
significant weather and/or obstructions to visibility.

* = STATION THAT DOES NOT REPORT PRECIPITATION /E.G. RAIN...SNOW...ETC/
    THUNDER OR FOG.

PAZ002>004-007>009-013>016-020>023-029>032-271500-
WESTERN PENNSYLVANIA

CITY           SKY/WX    TMP DP  RH WIND       PRES   REMARKS
ERIE           LGT SNOW  20  16  84 NE9       29.99R VSB 1   WCI   9
MEADVILLE      CLOUDY    17  12  80 N8        29.91R HAZE    WCI   7
FRANKLIN*      CLOUDY    14   9  79 N10       29.90S WCI   1
NEW CASTLE     LGT SNOW  18  14  84 N5        29.95R FOG     WCI  11
BEAVER COUNTY  LGT SNOW  19  16  86 NW6       29.92R WCI  11
BUTLER*        CLOUDY    18  16  93 N6        29.92R WCI   9
PITTSBURGH INT LGT SNOW  19  16  88 NW9       29.92R WCI   8
PITTSBURGH     LGT SNOW  19  14  81 NW7       29.90R WCI  10
INDIANA*       CLOUDY    19  18  93 NW5       29.90S WCI  13
LATROBE        LGT SNOW  19  18  93 W7        29.92R WCI  10
WASHINGTON CO* CLOUDY    19  14  79 CALM      29.93S
$$

PAZ004>006-010>012-017>019-024>028-033>037-041-042-045-046-049>053-271500-
CENTRAL PENNSYLVANIA

CITY           SKY/WX    TMP DP  RH WIND       PRES   REMARKS
BRADFORD       LGT SNOW  13   8  81 N7        29.81S WCI   3
DUBOIS         LGT SNOW  16  12  84 N7        29.82S FOG     WCI   6
CLEARFIELD     FLURRIES  17  12  80 NW5       29.83S WCI  10
JOHNSTOWN      LGT SNOW  16  13  88 W13       29.77S FOG     WCI   2
ALTOONA        CLOUDY    21  16  81 N13       29.82R WCI   9
STATE COLLEGE  FLURRIES  21  16  79 N8        29.83R WCI  12
WILLIAMSPORT   CLOUDY    21  12  68 W10       29.85R WCI  10
SELINSGROVE    PTSUNNY   23  14  68 N13       29.84R WCI  11
FT INDIANTOWN  CLOUDY    24  15  68 VRB6G17   29.79R
CAPITAL CITY   CLOUDY    27  19  72 NW9G18    29.81R
HARRISBURG     PTSUNNY   26  19  74 N17       29.80R WCI  13
YORK           PTSUNNY   26  20  77 NW9       29.79R
$$

PAZ038>040-043-044-047-048-054-055-060>062-067>071-271500-
EASTERN PENNSYLVANIA

CITY           SKY/WX    TMP DP  RH WIND       PRES   REMARKS
SCRANTON       CLOUDY    19   6  57 N12       29.78R WCI   7
MOUNT POCONO   CLOUDY    15   5  64 N17G24    29.65R WCI  -1
ALLENTOWN      CLOUDY    23  13  65 NW12      29.76R WCI  12
QUAKERTOWN*    NOT AVBL
READING        MOSUNNY   25  16  68 N15G21    29.77S WCI  13
LANCASTER      CLOUDY    24  18  77 N14       29.78R HAZE    WCI  12
COATESVILLE    MOSUNNY   27  23  86 N9G18     29.74R
POTTSTOWN      CLOUDY    25  17  72 N10       29.77R WCI  15
BLUE BELL      CLOUDY    27  21  80 NW3       29.75R
DOYLESTOWN     LGT SNOW  23  19  85 N8        29.74R FOG     WCI  14
WILLOW GROVE   NOT AVBL
NORTH PHILA    LGT SNOW  27  20  75 NW15      29.76R VSB 1
PHILADELPHIA   LGT SNOW  27  22  81 N14       29.76R
$$


USA.gov is the U.S. government's official web portal to all federal, state and local government web resources and services.